Other Public Products
Issued by NWS Grand Forks, ND

Home | Current Version | Previous Version | Text Only | Print | Product List | Glossary Off
Versions: 1 2 3 4 5 6 7 8 9 10 11 12 13 14 15 16 17 18 19 20 21 22 23 24 25 26 27 28 29 30 31 32 33 34 35 36 37 38 39 40 41 42 43 44 45 46 47 48 49 50

000
FPUS83 KFGF 240610
OPUFGF
PRAIRIE TO PINES WEATHER ROUNDUP
NATIONAL WEATHER SERVICE EASTERN NORTH DAKOTA/GRAND FORKS ND
1200 AM CST FRI NOV 24 2017

 **SATELLITE DATA USED TO AUGMENT SKY COVER AT AUTOMATED STATIONS**
 *****  WEATHER ACROSS EASTERN NORTH DAKOTA  *****

CITY           SKY/WX    TMP DP  RH WIND       PRES   REMARKS
GRAND FORKS    FAIR      43  37  79 SW10      29.28F
6HR MIN TEMP:  36; 6HR MAX TEMP:  43;

GRND FORKS AFB FAIR      44  35  72 W13       29.27F
GRND FORKS NWS   N/A     45 N/A N/A SW12        N/A
BUXTON         NOT AVBL
DEVILS LAKE    FAIR      42  35  76 SW10      29.29F
6HR MIN TEMP:  41; 6HR MAX TEMP:  50;

FARGO          FAIR      48  38  68 SW13      29.36F
6HR MIN TEMP:  40; 6HR MAX TEMP:  48;

WAHPETON ARPT  NOT AVBL
$$

 *****  WEATHER ACROSS CENTRAL AND WESTERN NORTH DAKOTA  *****

CITY           SKY/WX    TMP DP  RH WIND       PRES   REMARKS
JAMESTOWN      FAIR      51  36  56 SW13      29.36F
6HR MIN TEMP:  49; 6HR MAX TEMP:  54;

BISMARCK       FAIR      54  36  50 SW8       29.40F
6HR MIN TEMP:  48; 6HR MAX TEMP:  59;

MINOT          FAIR      54  37  52 SW13      29.30S
6HR MIN TEMP:  53; 6HR MAX TEMP:  59;

MINOT AFB      FAIR      45  35  69 W9        29.28F
6HR MIN TEMP:  45; 6HR MAX TEMP:  58;

GARRISON         N/A     45  37  73 W14       29.34F
6HR MIN TEMP:  44; 6HR MAX TEMP:  53;

WILLISTON      MOCLDY    46  34  62 NW5       29.35S
6HR MIN TEMP:  46; 6HR MAX TEMP:  58;

DICKINSON      FAIR      52  35  52 SW17      29.41F
6HR MIN TEMP:  52; 6HR MAX TEMP:  59;

HETTINGER      FAIR      52  34  50 W14       29.50F
6HR MIN TEMP:  44; 6HR MAX TEMP:  58;

$$

 *****  OTHER OBSERVATIONS NORTHEAST NORTH DAKOTA  *****

CITY           SKY/WX    TMP DP  RH WIND       PRES   REMARKS
WALHALLA       FAIR      50  39  66 W15G22    29.18F
LANGDON        FAIR      39  37  93 SW15      29.24F
CAVALIER       FAIR      46  36  66 S8        29.20F
GRAFTON        FAIR      41  36  81 SW14      29.25F
CANDO          FAIR      43  39  87 W14       29.28F
FORT TOTTEN      N/A     51  36  57 W7        29.95S
ROLLA          FAIR      43  37  81 SW16      29.26S
RUGBY          FAIR      41  36  81 SW7       29.30S
 ***** THE ABOVE OBSERVATIONS ARE NON NWS ARE NOT QUALITY
        CONTROLLED AND MAY MIS-REPORT RAIN FOR SNOW...
$$

 *****  OTHER OBSERVATIONS SOUTHEAST NORTH DAKOTA *****

CITY           SKY/WX    TMP DP  RH WIND       PRES   REMARKS
COOPERSTOWN    FAIR      48  37  66 SW16      29.33F
VALLEY CITY    FAIR      43  39  87 SW9       29.38S
OAKES            N/A     39  36  87 S9        29.42F
GWINNER          N/A     43  36  75 SW12      29.41F
SHEYENNE NWR     N/A     44  38  79 SW7       29.95S
BUFFALO        NOT AVBL
WYNDMERE       NOT AVBL
 ***** THE ABOVE OBSERVATIONS ARE NON NWS ARE NOT QUALITY
       CONTROLLED AND MAY MIS-REPORT RAIN FOR SNOW...
$$

  *****  WEATHER ACROSS NORTHERN MINNESOTA  *****

CITY           SKY/WX    TMP DP  RH WIND       PRES   REMARKS
FLAG ISLAND    FAIR      36  32  87 SW15      29.16F
WARROAD        FAIR      43  37  81 SW9       29.21F
ROSEAU         FAIR      45  37  76 SW14      29.21S
HALLOCK        FAIR      37  34  87 S12       29.22S
THF RVR FALLS  FAIR      42  35  76 SW12      29.29F
6HR MIN TEMP:  30; 6HR MAX TEMP:  43;

HALSTAD        NOT AVBL
FOSSTON        FAIR      39  34  81 S13       29.33F
BAUDETTE       FAIR      40  34  79 SW10      29.21F
6HR MIN TEMP:  26; 6HR MAX TEMP:  40;

WASKISH        FAIR      46  37  71 S8G20     29.27F
CROOKSTON      FAIR      41  36  81 SW10      29.30F
$$
  *****  WEATHER ACROSS CENTRAL AND WEST MINNESOTA  *****

CITY           SKY/WX    TMP DP  RH WIND       PRES   REMARKS
BEMIDJI        FAIR      40  33  77 S9        29.34F
6HR MIN TEMP:  30; 6HR MAX TEMP:  40;

PARK RAPIDS    FAIR      34  30  85 S5        29.39F
6HR MIN TEMP:  32; 6HR MAX TEMP:  38;

WADENA         FAIR      41  36  81 SW5       29.42S
DETROIT LAKES  FAIR      45  37  76 SW10      29.39F
MOORHEAD       FAIR      39  34  81 CALM      29.38F
FERGUS FALLS   FAIR      37  34  87 S8        29.44F
ELBOW LAKE     FAIR      39  35  84 S12       29.44F
MORRIS MN      FAIR      43  36  75 S9        29.44F
STAPLES        FAIR      39  34  81 S7        29.43F
WHEATON        NOT AVBL
$$
  *****  WEATHER ELSEWHERE ACROSS MINNESOTA  *****

CITY           SKY/WX    TMP DP  RH WIND       PRES   REMARKS
DULUTH         FAIR      38  29  70 SW17      29.44F
6HR MIN TEMP:  33; 6HR MAX TEMP:  38;

INTRNTL FALLS  FAIR      40  30  67 S9        29.26F
6HR MIN TEMP:  27; 6HR MAX TEMP:  40;

ELY            FAIR      37  27  65 S9G21     29.35F
CLOQUET        FAIR      37  27  65 SW14      29.45F
BRAINERD       FAIR      40  32  73 S9        29.44F
6HR MIN TEMP:  36; 6HR MAX TEMP:  40;

HIBBING        FAIR      33  26  75 S5        29.39F
6HR MIN TEMP:  31; 6HR MAX TEMP:  34;

ALEXANDRIA     FAIR      46  37  71 SW13      29.46F
6HR MIN TEMP:  40; 6HR MAX TEMP:  46;

SAINT CLOUD    FAIR      39  32  76 S6        29.50F
6HR MIN TEMP:  35; 6HR MAX TEMP:  43;

MINNEAPOLIS    MOCLDY    48  35  60 S6        29.57F
6HR MIN TEMP:  37; 6HR MAX TEMP:  49;

$$

  *****  WEATHER ACROSS SOUTH DAKOTA  *****

CITY           SKY/WX    TMP DP  RH WIND       PRES   REMARKS
SIOUX FALLS    FAIR      52  41  66 SW9       29.58F
6HR MIN TEMP:  52; 6HR MAX TEMP:  57;

BROOKINGS      FAIR      45  38  76 S10       29.54F
WATERTOWN      FAIR      42  37  82 S7        29.50F
6HR MIN TEMP:  39; 6HR MAX TEMP:  49;

HURON          FAIR      47  39  74 S9        29.50F
6HR MIN TEMP:  47; 6HR MAX TEMP:  53;

SISSETON         N/A     55  40  56 SW17      29.42F
ABERDEEN       FAIR      36  34  92 S8        29.46F
6HR MIN TEMP:  34; 6HR MAX TEMP:  47;

MITCHELL       FAIR      53  40  61 S9        29.54F
PIERRE         FAIR      51  39  63 W12       29.52F
6HR MIN TEMP:  51; 6HR MAX TEMP:  62;

MOBRIDGE       FAIR      54  37  52 CALM      29.45F
RAPID CITY     FAIR      61  34  36 W12       29.61F
6HR MIN TEMP:  45; 6HR MAX TEMP:  63;

$$

  *****  SOME WEATHER IN NEARBY STATES *****

CITY           SKY/WX    TMP DP  RH WIND       PRES   REMARKS
GLASGOW MT     CLOUDY    50  45  83 NW9       29.42R
6HR MIN TEMP:  50; 6HR MAX TEMP:  65; 6HR PCP:  0.04;

GREAT FALLS MT LGT RAIN  48  39  71 NW20G33   29.58R
6HR MIN TEMP:  48; 6HR MAX TEMP:  56; 6HR PCP: TRACE;

CHEYENNE WY    FAIR      57  31  37 W22G36    29.92F
6HR MIN TEMP:  52; 6HR MAX TEMP:  59;

SCOTTSBLUFF NE FAIR      52  35  52 CALM      29.78F
6HR MIN TEMP:  44; 6HR MAX TEMP:  59;

OMAHA NE       FAIR      46  37  71 SE10      29.72F
6HR MIN TEMP:  46; 6HR MAX TEMP:  54;

DES MOINES IA  CLOUDY    51  36  56 S15       29.76F
6HR MIN TEMP:  44; 6HR MAX TEMP:  51;

DAVENPORT IA   FAIR      34  27  75 S9        29.86F
6HR MIN TEMP:  31; 6HR MAX TEMP:  38; 6HR PCP: TRACE;

CHICAGO IL     FAIR      34  26  72 S5        29.87F
6HR MIN TEMP:  34; 6HR MAX TEMP:  40;

EAU CLAIRE WI  FAIR      37  27  67 S6        29.62F
6HR MIN TEMP:  32; 6HR MAX TEMP:  37;

LA CROSSE WI   FAIR      41  28  60 S10       29.70F
6HR MIN TEMP:  33; 6HR MAX TEMP:  41;

$$

  *****  SOME NATIONAL WEATHER *****

CITY           SKY/WX    TMP DP  RH WIND       PRES   REMARKS
LA GUARDIA NY  FAIR      39  21  48 W8        30.04S


USA.gov is the U.S. government's official web portal to all federal, state and local government web resources and services.